Preview of NWS' New Version of Forecast
This preview is not operational and should not be used for support decisions.

Regional Weather Roundup (RWR)

Issued by National Weather Service (NWS)

                            
000
ASUS44 KMEG 181700
RWRTN 
TENNESSEE HOURLY STATE WEATHER ROUNDUP
NATIONAL WEATHER SERVICE MEMPHIS TN
1200 PM CDT THU JUL 18 2019

TNZ002-004-019-021-049-052-054-088>092-181800-
WEST TENNESSEE
  
CITY           SKY/WX    TMP DP  RH WIND       PRES   REMARKS
MEMPHIS INTL   PTSUNNY   89  79  72 W12G22    30.04S HX 104           
NWS MEMPHIS      N/A     89 N/A N/A MISG        N/A                   
JACKSON        FAIR      87  78  74 SW10      30.05S HX 100           
DYERSBURG      FAIR      84  78  82 SW7       30.03F HX  95           
HUNTINGDON     MOSUNNY   84  79  84 VRB5G12   30.04R HX  96           
LEXINGTON      SUNNY     86  77  74 SW8       30.04F HX  97           
SELMER         MOSUNNY   88  77  70 W6        30.05S HX 100           
$$

TNZ008-025-027-028-033-062-065-066-181800-
NORTH MIDDLE TENNESSEE
  
CITY           SKY/WX    TMP DP  RH WIND       PRES   REMARKS
NASHVILLE      PTSUNNY   87  74  64 W5        30.06S HX  95           
CLARKSVILLE    FAIR      82  76  81 NW7       30.05R                  
SMYRNA         CLOUDY    88  77  69 NW8       30.07S HX 100           
MURFREESBORO   CLOUDY    84  77  79 VRB3      30.05S HX  94           
COOKEVILLE     CLOUDY    79  75  89 SW7       30.08S                  
LIVINGSTON     PTSUNNY   82  73  74 W7        30.08S                  
CROSSVILLE     PTSUNNY   80  71  74 W9        30.13F                  
$$

TNZ061-075-076-078-094-096-097-181800-
SOUTH MIDDLE TENNESSEE
  
CITY           SKY/WX    TMP DP  RH WIND       PRES   REMARKS
FAYETTEVILLE   PTSUNNY   81  75  83 SW3       30.10S                  
TULLAHOMA      PTSUNNY   81  75  83 SW8       30.10S                  
WINCHESTER     PTSUNNY   81  73  78 W6        30.11R                  
$$

TNZ017-018-042-046-047-181800-
NORTHEAST TENNESSEE
  
CITY           SKY/WX    TMP DP  RH WIND       PRES   REMARKS
TRI CITIES     PTSUNNY   83  72  69 SW10      30.07F                  
$$

TNZ012-013-036-069-073-074-181800-
CENTRAL EAST TENNESSEE
  
CITY           SKY/WX    TMP DP  RH WIND       PRES   REMARKS
KNOXVILLE      PTSUNNY   85  71  63 SW14      30.06F HX  90           
OAK RIDGE      FAIR      89  73  59 VRB5      30.07S HX  97           
$$

TNZ083-085-099-181800-
SOUTHEAST TENNESSEE
  
CITY           SKY/WX    TMP DP  RH WIND       PRES   REMARKS
CHATTANOOGA    PTSUNNY   84  74  71 W8        30.09S HX  91           
$$

SKY/WX REPORTED AS FAIR MEANS FEW OR NO CLOUDS BELOW
12 THOUSAND FEET.